Preview of NWS' New Version of Forecast
This preview is not operational and should not be used for support decisions.

Regional Weather Roundup (RWR)

Issued by National Weather Service (NWS)

                            
000
ASUS46 KSEW 232010
RWRWA 

WASHINGTON REGIONAL WEATHER ROUNDUP
NATIONAL WEATHER SERVICE SEATTLE WA
100 PM PDT SUN JUN 23 2019

NOTE:"FAIR" INDICATES FEW OR NO CLOUDS BELOW 12,000 FEET WITH NO 
SIGNIFICANT WEATHER AND/OR OBSTRUCTIONS TO VISIBILITY.

WAZ507-509-555>559-232100-
SEATTLE, TACOMA, EVERETT, AND VICINITY
  
CITY           SKY/WX    TMP DP  RH WIND       PRES   REMARKS
EVERETT        CLOUDY    56  53  90 VRB5      30.20S                  
BOEING FIELD   CLOUDY    61  49  64 S5        30.19S                  
RENTON         CLOUDY    61  50  67 CALM      30.19S                  
SEATAC AIRPORT CLOUDY    61  49  64 VRB6      30.19S                  
JBLM-MCCHORD   CLOUDY    64  55  71 S7        30.18F                  
PUYALLUP       CLOUDY    63  52  67 S5        30.19F                  
BREMERTON      CLOUDY    59  50  72 E5        30.18F                  
JBLM-FT LEWIS  CLOUDY    63  54  72 S6        30.18S                  
TACOMA NARROWS PTSUNNY   62  48  60 VRB7      30.19S                  
$$
 
WAZ001-503-506-510-514-515-232100-
NORTH INTERIOR
  
CITY           SKY/WX    TMP DP  RH WIND       PRES   REMARKS
BELLINGHAM     CLOUDY    60  48  64 S15       30.14S                  
FRIDAY HARBOR  PTSUNNY   65  49  56 SW10G18   30.14F                  
EASTSOUND      PTSUNNY   63  52  67 SE7       30.13S                  
PORT ANGELES   SUNNY     59  48  67 NW16G26   30.18R                  
EDIZ HOOK      FAIR      58  49  73 NW15G21   30.18S                  
PORT TOWNSEND  CLOUDY    57  54  88 SE6       30.19R                  
NAS WHIDBEY    PTSUNNY   63  47  55 SW15      30.21S                  
ARLINGTON      CLOUDY    58  48  69 CALM      30.20S                  
BURLINGTON     CLOUDY    64  48  55 SW16      30.18R                  
$$
 
WAZ020-022-039-040-504-511-512-232100-
SOUTHWEST INTERIOR
  
CITY           SKY/WX    TMP DP  RH WIND       PRES   REMARKS
SHELTON        CLOUDY    66  46  48 S14G21    30.14S                  
OLYMPIA        CLOUDY    64  47  53 SW10G22   30.18S                  
CHEHALIS       CLOUDY    66  52  59 W10G18    30.20S HAZE             
KELSO          CLOUDY    63  50  62 W8        30.22F                  
VANCOUVER      CLOUDY    65  46  50 VRB5      30.21F                  
SCAPPOOSE, OR  CLOUDY    64  48  56 NW7       30.21S                  
PORTLAND, OR   PTSUNNY   65  46  50 N5        30.22F                  
$$
 
WAZ021-516-517-232100-
WASHINGTON COAST
  
CITY           SKY/WX    TMP DP  RH WIND       PRES   REMARKS
FORKS          CLOUDY    58  48  69 W10       30.22S                  
HOQUIAM        CLOUDY    60  49  66 W15G22    30.22F                  
ASTORIA, OR    LGT RAIN  59  50  72 NW9       30.24S                  
$$
 
WAZ019-023-024-040-567>569-232100-
CASCADE MOUNTAINS AND COLUMBIA GORGE
  
CITY           SKY/WX    TMP DP  RH WIND       PRES   REMARKS
STAMPEDE PASS  FOG       46  44  93 W8        30.15S VSB 1/4          
TROUTDALE, OR  CLOUDY    66  46  48 VRB5      30.21F                  
HOOD RIVER, OR MOCLDY    66  45  45 NW15G23   30.16S                  
THE DALLES, OR SUNNY     71  45  39 NW23G31   30.10F                  
$$

WAZ026-027-041>044-520-521-232100-
EAST SLOPES
  
CITY           SKY/WX    TMP DP  RH WIND       PRES   REMARKS
OMAK           MOSUNNY   76  40  27 VRB7      29.92F                  
WENATCHEE      SUNNY     74  39  28 NW29G36   29.95F                  
ELLENSBURG     SUNNY     69  44  40 NW28G37   30.02F                  
YAKIMA         MOSUNNY   75  42  30 N17       30.01F                  
SUNNYSIDE ARPT PTCLDY    76  47  35 W14G21    29.99                   
YAKIMA TC      FAIR      74  35  24 NW17G25   30.00F                  
$$

WAZ028-034-035-232100-
COLUMBIA BASIN
  
CITY           SKY/WX    TMP DP  RH WIND       PRES   REMARKS
EPHRATA        CLOUDY    77  35  21 W13G22    29.93F                  
MOSES LAKE     CLOUDY    77  39  25 SW13      29.95F                  
PASCO          CLOUDY    79  44  28 SW17G25   29.99F                  
RICHLAND ARPT  CLOUDY    76  46  33 S18G29    29.98F                  
HERMISTON, OR  MOSUNNY   77  44  30 SW17G25   30.01F                  
$$

WAZ036>038-232100-
NORTHEAST WASHINGTON
  
CITY           SKY/WX    TMP DP  RH WIND       PRES   REMARKS
SPOKANE GEIGER CLOUDY    70  39  32 SW20      29.97F                  
SPOKANE FELTS  CLOUDY    70  41  34 SW12G20   29.97F                  
FAIRCHILD AFB  CLOUDY    68  37  32 SW16G23   29.97S                  
COEURDALENE,ID CLOUDY    60  47  61 S8        30.01F                  
DEER PARK      PTSUNNY   67  46  47 MISG      29.96F                  
$$

WAZ029>033-232100-
SOUTHEAST WASHINGTON
  
CITY           SKY/WX    TMP DP  RH WIND       PRES   REMARKS
PULLMAN        PTSUNNY   66  45  46 SW16      30.05S                  
LEWISTON, ID   CLOUDY    73  40  30 W12       29.99S                  
WALLA WALLA    CLOUDY    70  45  40 S14G21    30.03F                  
PENDLETON, OR  CLOUDY    71  42  35 W9G26     30.04F                  
$$